Chapel Hill, NC

5:55 AM EDT on March 30, 2017 (GMT -0400)
Williams

Weather History for KIGX - March, 2014

Change the Weather History Date:

Sunday, March 16, 2014

  Actual Average Record
Temperature  
Mean Temperature 46 °F -  
Max Temperature 55 °F 62 °F 86 °F (2016)
Min Temperature 37 °F 35 °F 19 °F (1993)
Degree Days  
Heating Degree Days 19    
Moisture  
Dew Point 37 °F    
Average Humidity 77    
Maximum Humidity 97    
Minimum Humidity 37    
Precipitation  
Precipitation 0.32 in - - ()
Sea Level Pressure  
Sea Level Pressure 29.93 in    
Wind  
Wind Speed 6 mph (NE)    
Max Wind Speed 16 mph    
Max Gust Speed 24 mph    
Visibility 6 miles    
Events Rain    
Averages and records for this station are not official NWS values.
T = Trace of Precipitation, MM = Missing Value Source: NWS Daily Summary

Daily Weather History Graph

Daily Weather History Graph

Search for Another Location

Airport or City:

Trip Planner

Search our weather history database for the weather conditions in past years. The results will help you decide how hot, cold, wet, or windy it might be!

Date:

Astronomy

Mar. 16, 2014 Rise Set
Actual Time 7:25 AM EDT 7:24 PM EDT
Civil Twilight 7:00 AM EDT 7:50 PM EDT
Nautical Twilight 6:30 AM EDT 8:19 PM EDT
Astronomical Twilight 6:00 AM EDT 8:50 PM EDT
Moon 7:38 PM EDT (3/16) 7:08 AM EDT (3/16)
Length of Visible Light 12h 50m
Length of Day
11h 58m
Full, 100% of the Moon is Illuminated
Mar 16
Full
Mar 16
Full
Mar 23
Last Quarter
Mar 30
New
Apr 7
First Quarter

Hourly Weather History & Observations

Time (EDT) Temp. Windchill Dew Point Humidity Pressure Visibility Wind Dir Wind Speed Gust Speed Precip Events Conditions
12:56 AM 48.9 °F - 36.0 °F 61% 30.04 in 10.0 mi Calm Calm - N/A   Clear
1:56 AM 46.9 °F - 35.1 °F 63% 30.04 in 10.0 mi Calm Calm - N/A   Clear
2:56 AM 46.0 °F - 37.0 °F 71% 30.05 in 10.0 mi Calm Calm - N/A   Clear
3:56 AM 46.9 °F - 33.1 °F 59% 30.02 in 10.0 mi Calm Calm - N/A   Clear
4:56 AM 51.1 °F - 28.9 °F 43% 30.01 in 10.0 mi NE 6.9 mph - N/A   Clear
5:56 AM 52.0 °F - 26.1 °F 37% 30.01 in 10.0 mi Calm Calm - N/A   Clear
6:56 AM 46.0 °F 43.1 °F 30.0 °F 54% 30.02 in 10.0 mi NE 5.8 mph - N/A   Clear
7:56 AM 50.0 °F - 28.9 °F 44% 30.02 in 10.0 mi NE 8.1 mph - N/A   Clear
8:56 AM 51.1 °F - 28.9 °F 43% 30.02 in 10.0 mi ENE 8.1 mph - N/A   Clear
9:56 AM 52.0 °F - 30.0 °F 43% 30.02 in 10.0 mi ENE 5.8 mph - N/A   Overcast
10:56 AM 54.0 °F - 30.0 °F 40% 30.01 in 10.0 mi ENE 8.1 mph - N/A   Overcast
11:56 AM 55.0 °F - 30.0 °F 38% 30.03 in 10.0 mi East 4.6 mph - N/A   Overcast
12:56 PM 54.0 °F - 32.0 °F 43% 30.03 in 10.0 mi East 4.6 mph - 0.00 in Rain Light Rain
1:56 PM 52.0 °F - 39.0 °F 61% 30.03 in 10.0 mi ENE 3.5 mph - 0.01 in Rain Light Rain
2:56 PM 48.9 °F - 44.1 °F 83% 29.97 in 8.0 mi NE 9.2 mph - 0.02 in Rain Light Rain
3:56 PM 48.0 °F - 43.0 °F 83% 29.93 in 6.0 mi ENE 8.1 mph - 0.04 in Rain Light Rain
4:56 PM 46.0 °F 43.1 °F 43.0 °F 89% 29.91 in 5.0 mi ENE 5.8 mph - 0.04 in Rain Light Rain
5:19 PM 46.0 °F 41.9 °F 43.0 °F 89% 29.92 in 2.5 mi ENE 8.1 mph - 0.02 in Rain Light Rain
5:56 PM 45.0 °F 39.7 °F 43.0 °F 93% 29.88 in 3.0 mi ENE 10.4 mph - 0.06 in Rain Light Rain
6:07 PM 45.0 °F 39.7 °F 42.1 °F 90% 29.89 in 4.0 mi ENE 10.4 mph - 0.01 in Rain Light Rain
6:43 PM 44.1 °F 38.1 °F 42.1 °F 93% 29.88 in 3.0 mi NE 11.5 mph - 0.01 in Rain Light Rain
6:53 PM 44.6 °F 38.1 °F 42.8 °F 93% 29.87 in 2.5 mi NE 13.8 mph - 0.02 in Rain Light Rain
6:56 PM 44.1 °F 37.4 °F 42.1 °F 93% 29.87 in 2.5 mi NE 13.8 mph - 0.02 in Rain Light Rain
7:09 PM 44.1 °F 36.8 °F 42.1 °F 93% 29.85 in 1.5 mi ENE 16.1 mph 23.0 mph 0.00 in Rain Light Rain
7:22 PM 43.0 °F 35.7 °F 41.0 °F 93% 29.85 in 2.0 mi ENE 15.0 mph 19.6 mph 0.01 in Rain Light Rain
7:32 PM 43.0 °F 35.7 °F 41.0 °F 93% 29.85 in 3.0 mi ENE 15.0 mph 23.0 mph 0.01 in Rain Light Rain
7:56 PM 42.1 °F 34.9 °F 41.0 °F 96% 29.85 in 3.0 mi NE 13.8 mph 19.6 mph 0.02 in Rain Light Rain
8:10 PM 42.1 °F 35.2 °F 39.9 °F 92% 29.86 in 2.5 mi NE 12.7 mph - 0.01 in Rain Light Rain
8:48 PM 41.0 °F 33.5 °F 39.0 °F 93% 29.89 in 2.5 mi ENE 13.8 mph 21.9 mph 0.05 in Rain Light Rain
8:56 PM 39.9 °F 32.5 °F 39.0 °F 97% 29.89 in 3.0 mi NE 12.7 mph - 0.06 in Rain Light Rain
9:20 PM 39.0 °F 30.3 °F 37.0 °F 93% 29.89 in 3.0 mi NE 16.1 mph 20.7 mph 0.01 in Rain Light Rain
9:42 PM 37.9 °F 30.0 °F 36.0 °F 93% 29.89 in 3.0 mi NE 12.7 mph 24.2 mph 0.01 in Rain Light Rain
9:56 PM 37.9 °F 29.6 °F 36.0 °F 93% 29.88 in 3.0 mi ENE 13.8 mph 24.2 mph 0.02 in Rain Light Rain
10:56 PM 37.9 °F 30.9 °F 37.0 °F 97% 29.87 in 5.0 mi NE 10.4 mph - 0.01 in Rain Light Rain
11:12 PM 37.9 °F 30.9 °F 37.0 °F 97% 29.86 in 4.0 mi NE 10.4 mph - 0.00 in Rain Light Rain
11:34 PM 37.9 °F 29.6 °F 36.0 °F 93% 29.87 in 9.0 mi NE 13.8 mph 20.7 mph 0.00 in   Overcast
11:41 PM 37.9 °F 30.0 °F 36.0 °F 93% 29.88 in 9.0 mi NNE 12.7 mph 20.7 mph 0.00 in   Overcast
11:56 PM 37.9 °F 29.6 °F 36.0 °F 93% 29.88 in 3.0 mi NE 13.8 mph 20.7 mph 0.02 in Rain Light Rain